Probability
0 0 0 0 0 0 0 0 0 0 0 0 0 0 0 0 0 0 0 0 0 0 0 0 0 0 0 0 0 0 0 0 0 0 0 0 0 0
0 0 0 0 0 0 0 0 0 0 0 0 0 0 0 0 0 0 0 0 0 0 0 0 0 0 0 0 0 0 0 0 0 0 0 0 0 0
0 0 0 0 0 0 0 0 0 0 0 0 0 0 0 0 0 0 0 0 0 0 0 0 0 0 0 0 0 0 0 0 0 0 0 0 0 0
0 0 0 0 0 0 0 0 0 0 0 0 0 0 0 0 0 0 0 0 0 0 0 0 0 0 0 0 0 0 0 0 0 0 0 0 0 0
0 0 0 0 0 0 0 0 0 0 0 0 0 0 0 0 0 0 0 0 0 0 0 0 0 0 0 0 0 0 0 0 0 0 0 0 0 0
0 0 0 0 0 0 0 0 0 0 0 0 0 0 0 0 0 0 0 0 0 0 0 0 0 0 0 0 0 0 0 0 0 0 0 0 0 0
0 0 0 0 0 0 0 0 0 0 0 0 0 0 0 0 0 0 0 0 0 0 0 0 0 0 0 0 0 0 0 0 0 0 0 0 0 0
0 0 0 0 0 0 0 0 0 0 0 0 0 0 0 0 0 0 0 0 0 0 0 0 0 0 0 0 0 0 0 0 0 0 0 0 0 0
0 0 0 0 0 0 0 0 0 0 0 0 0 0 0 0 0 0 0 0 0 0 0 0 0 0 0 0 0 0 0 0 0 0 0 0 0 0
0 0 0 0 0 0 0 0 0 0 0 0 0 0 0 0 0 0 0 0 0 0 0 0 0 0 0 0 0 0 0 0 0 0 0 0 0 0
0 0 0 0 0 0 0 0 0 0 0 0 0 0 0 0 0 0 0 0 0 0 0 0 0 0 0 0 0 0 0 0 0 0 0 0 0 0
0 0 0 0 0 0 0 0 0 0 0 0 0 0 0 0 0 0 0 0 0 0 0 0 0 0 0 0 0 0 0 0 0 0 0 0 0 0
0 0 0 0 0 0 0 0 0 0 0 0 0 0 0 0 0 0 0 0 0 0 0 0 0 0 0 0 0 0 0 0 0 0 0 0 0 0
0 0 0 0 0 0 0 0 0 0 0 0 0 0 0 0 0 0 0 0 0 0 0 0 0 0 0 0 0 0 0 0 0 0 0 0 0 0
0 0 0 0 0 0 0 0 0 0 0 0 0 0 0 0 0 0 0 0 0 0 0 0 0 0 0 0 0 0 0 0 0 0 0 0 0 0
0 0 0 0 0 0 0 0 0 0 0 0 0 0 0 0 0 0 0 0 0 0 0 0 0 0 0 0 0 0 0 0 0 0 0 0 0 0
0 0 0 0 0 0 0 0 0 0 0 0 0 0 0 0 0 0 0 0 0 0 0 0 0 0 0 0 0 0 0 0 0 0 0 0 0 0
0 0 0 0 0 0 0 0 0 0 0 0 0 0 0 0 0 0 0 0 0 0 0 0 0 0 0 0 0 0 0 0 0 0 0 0 0 0
0 0 0 0 0 0 0 0 0 0 0 0 0 0 0 0 0 0 0 0 0 0 0 0 0 0 0 0 0 0 0 0 0 0 0 0 0 0
0 0 0 0 0 0 0 0 0 0 0 0 0 0 0 0 0 0 0 0 0 0 0 0 0 0 0 0 0 0 0 0 0 0 0 0 0 0
0 0 0 0 0 0 0 0 0 0 0 0 0 0 0 0 0 0 0 0 0 0 0 0 0 0 0 0 0 0 0 0 0 0 0 0 0 0
0 0 0 0 0 0 0 0 0 0 0 0 0 0 0 0 0 0 0 0 0 0 0 0 0 0 0 0 0 0 0 0 0 0 0 0 0 0
0 0 0 0 0 0 0 0 0 0 0 0 0 0 0 0 0 0 0 0 0 0 0 0 0 0 0 0 0 0 0 0 0 0 0 0 0 0
Wind_Speed
4 4 3 3 3 4 4 4 5 7 7 4 3 2 3 3 5 5 6 8 9 10 10 10 10 10 11 11 12 12 12 12 11 12 12 12 13 14
4 4 4 4 4 3 3 4 4 6 8 4 4 4 4 4 6 5 6 9 9 9 10 10 11 10 10 10 11 12 12 12 12 12 12 12 13 14
5 5 5 5 4 4 3 4 4 5 8 7 4 4 5 6 6 5 5 5 5 9 9 10 11 10 10 10 11 11 11 11 12 12 12 13 13 14
6 5 6 5 5 5 4 5 4 5 6 10 7 5 5 5 6 6 5 5 5 8 10 10 10 10 10 10 10 10 10 11 12 12 13 13 13 13
5 6 6 6 6 5 5 5 5 5 5 6 7 5 4 4 5 5 5 5 5 6 8 9 9 9 10 10 9 9 10 11 11 11 12 13 13 13
5 5 5 5 6 6 6 6 6 6 5 6 6 5 5 4 3 4 6 4 5 5 6 7 8 9 9 10 9 9 10 10 11 11 12 12 13 13
5 5 6 6 7 7 6 6 6 5 5 5 6 5 5 5 5 4 6 6 6 3 4 4 4 4 5 7 8 9 10 11 11 11 11 11 11 11
7 6 6 6 8 9 10 10 9 7 7 6 6 6 7 6 6 6 6 6 6 2 4 5 3 4 4 3 8 10 11 11 11 11 11 10 10 10
6 7 6 7 7 7 9 10 9 9 9 7 8 8 7 6 7 7 7 7 8 5 4 6 3 5 4 5 10 10 11 11 11 11 11 10 10 11
6 6 7 8 8 9 8 8 7 7 8 6 6 7 7 6 6 7 8 8 7 4 3 5 4 4 5 5 8 10 11 11 12 12 12 12 11 11
6 6 7 8 11 13 9 9 9 7 8 9 9 9 9 9 7 4 4 4 5 4 2 3 4 5 4 4 5 9 10 11 12 12 13 13 12 10
6 6 7 10 13 13 8 8 9 8 7 6 6 7 6 6 7 4 4 4 4 4 2 3 3 3 5 3 3 4 6 9 12 12 13 14 13 7
6 6 6 13 14 13 11 8 10 10 7 6 5 4 4 3 3 4 4 4 4 4 3 3 3 2 3 5 4 3 4 5 6 8 10 14 13 9
7 6 7 13 14 14 10 10 12 9 4 4 4 4 4 4 4 4 4 4 4 5 4 3 3 3 3 5 5 4 4 4 5 6 6 10 10 10
7 10 12 14 13 9 10 11 7 4 4 4 4 5 4 4 4 4 4 4 4 3 3 3 3 4 4 5 5 5 5 4 4 5 6 6 6 5
7 7 11 12 9 8 7 6 4 3 4 4 5 5 4 3 3 3 3 3 3 3 3 3 4 4 4 4 4 5 5 4 5 6 6 6 6 4
6 4 5 5 4 4 4 3 3 3 4 4 4 4 4 3 3 2 2 2 2 4 4 4 4 3 4 4 4 4 4 5 5 6 6 7 6 5
7 4 5 5 5 5 5 4 4 4 4 4 4 4 4 3 3 3 2 2 3 4 4 4 4 4 2 3 4 4 4 4 5 6 5 5 7 6
4 4 5 5 5 5 5 5 5 4 4 4 4 3 3 3 3 3 3 2 3 4 4 3 3 2 4 5 4 2 3 5 5 5 5 4 6 8
3 4 5 5 5 5 5 5 5 4 3 3 3 3 3 3 3 3 3 3 3 4 4 3 3 2 3 4 5 5 6 5 4 5 5 5 6 9
4 4 5 5 5 5 5 5 5 4 4 3 3 3 3 2 3 3 3 4 3 3 4 5 4 5 4 2 3 4 4 6 7 5 5 5 6 5
5 5 4 4 5 5 4 4 4 4 4 4 3 3 3 3 3 4 3 3 3 4 5 5 5 3 1 2 3 5 6 6 7 10 9 7 4 4
5 5 5 5 5 4 4 5 5 5 4 4 3 3 3 3 3 3 3 3 3 3 4 4 3 2 2 2 3 4 6 7 6 6 5 9 11 12
Wind_Direction
316 308 298 297 295 293 290 282 276 285 284 277 276 280 289 287 299 291 289 295 296 296 295 296 296 296 296 295 291 289 286 287 288 286 285 285 284 283
326 324 316 312 302 297 293 292 282 275 278 285 284 296 296 294 300 293 288 299 295 295 295 296 295 295 294 293 292 291 290 291 292 291 289 287 286 286
327 324 319 313 308 306 299 292 288 284 281 290 289 294 293 293 298 292 287 287 291 293 294 295 295 294 294 295 294 291 290 291 292 290 289 287 286 286
327 327 325 323 322 318 311 302 295 290 284 291 296 297 295 300 301 296 296 294 290 294 294 294 294 297 299 299 300 297 295 293 292 290 289 287 286 286
329 328 326 331 328 323 317 310 305 303 294 291 297 300 301 306 307 303 300 296 297 298 297 296 300 303 302 302 300 298 294 291 290 290 289 288 287 285
325 323 322 322 318 318 313 308 304 302 298 293 293 298 301 304 298 302 303 301 297 298 296 300 302 302 300 300 297 296 297 296 292 289 289 288 286 286
321 319 318 320 321 316 312 313 309 300 297 294 294 299 304 316 311 308 302 306 293 285 295 289 291 288 291 293 294 297 301 302 300 295 293 291 290 289
319 318 316 314 318 318 317 314 310 305 302 296 293 295 299 304 305 306 308 310 299 305 300 290 282 283 289 287 295 303 305 305 306 305 301 298 300 298
315 315 316 317 313 311 313 313 310 308 301 292 290 291 294 297 299 298 298 295 288 298 299 282 274 277 286 288 296 303 307 309 311 312 307 303 303 304
306 306 307 310 312 314 309 308 307 307 301 293 286 290 295 297 289 288 290 291 286 283 287 280 290 288 295 292 296 303 307 311 313 314 313 307 305 304
306 307 306 304 312 318 313 307 306 305 308 304 302 304 305 307 311 304 296 295 292 287 297 286 293 302 292 289 308 318 317 318 318 317 316 312 309 309
307 306 307 310 313 316 311 306 304 305 308 309 308 308 306 307 314 297 284 282 288 285 307 305 295 318 302 291 309 323 325 323 325 324 323 319 314 309
306 307 307 314 315 316 315 306 303 306 302 299 298 299 301 303 308 309 299 282 279 274 293 306 289 292 278 295 301 309 319 320 321 319 320 318 316 314
299 299 302 310 313 315 316 313 316 316 308 307 305 306 305 306 309 308 303 297 285 277 286 292 272 269 273 283 289 305 314 315 319 317 316 318 316 314
294 298 304 308 312 313 315 319 322 318 310 305 302 298 298 299 307 310 310 312 306 300 302 300 284 275 264 265 282 295 306 308 318 321 320 320 316 314
302 304 307 308 309 310 310 314 313 305 299 294 293 295 301 303 302 308 311 325 323 316 320 320 307 289 274 275 274 286 294 298 316 320 317 312 309 306
310 308 305 306 304 302 302 302 301 301 297 294 293 294 297 300 303 315 311 320 305 302 314 325 323 300 274 268 278 282 293 299 306 316 318 312 307 306
321 305 301 299 298 300 299 299 295 292 293 292 290 290 291 294 303 312 311 304 299 299 305 313 324 324 313 283 250 273 289 297 308 312 309 307 306 309
325 299 294 295 294 293 293 291 290 289 290 288 287 287 287 291 295 298 300 302 299 300 302 306 311 316 313 306 301 294 300 303 307 306 304 299 295 302
298 289 288 289 288 288 289 291 293 294 291 287 286 283 280 280 284 286 287 288 293 299 301 302 300 292 274 279 290 294 298 294 298 302 306 304 291 295
291 285 285 287 288 288 288 288 288 288 285 282 278 275 271 270 274 278 281 283 287 289 292 296 299 304 286 277 284 292 296 307 312 301 302 307 309 309
287 286 287 285 285 285 286 289 291 285 281 273 269 268 265 260 264 270 272 278 280 280 283 292 303 305 290 272 287 297 307 316 318 318 312 299 296 298
289 289 290 289 286 285 285 285 283 280 275 268 266 265 263 264 267 268 269 269 275 282 291 302 312 319 300 282 289 297 304 315 323 330 324 323 315 301